AQI ()

Current Conditions for Foresthill, CA. Mostly Cloudy, Dry   
Visibility: 10 miles
Cloud ht: 477 ft Foresthill Advisory text: Warning Description: Freeze Watch Warning Date: 7:15 am PST on December 6, 2016

  Summary / Temperature 

Current Temperature
39.1°F
3.9°C
(24/hr Ago)
42.6°F
(Apparent temp)
35.1°F
Cool
Wind Chill Graphs
34.6°F 
Wind Chill-Avg
35.1°F 1.7°C
 --- Virtual Temp: 40.5°F ---

 Temp Rate:

 24/hr Difference:

 Avg Running Temp:

 Todays High:

 Todays Low:

 Y-days High:

 Y-days Low:

 Todays WChill:

 Y-days WChill:

 Evapotranspiration:

+0.9°F/hr 

-3.5°F

37.1°F

39.0°F 9:51am

34.6°F 3:54am

50.2°F 1:31pm

37.4°F 11:55pm

29.4°F 4:03am

31.3°F 6:38am

0.001 in

115' Above Ground

 Temperature:

 6'AGL VRS 115'AGL:

 Avg Running Temp:

 Humidity:

 Todays High:

 Todays Low:

 Y-days High:

 Y-days Low:

40.0°F 

+0.9°F

38.7°F

85% 

40.0°F 9:29am

37.0°F 1:53am

55.0°F 10:53am

39.0°F 11:55pm

Temp & Humidity Graphs

  Wind 

Wind Speed

 7.0 mph

Gusting to

 8.0 mph

Wind from SSW

199°  SSW

Light breeze

 Avg speed:

 Wind Run:

 Peak Gust:

  2.0 mph 

10.0 miles

  12.0 mph 9:17am

  Almanac  

Moon age: 6 days,8 hours,4 minutes,39%

Waxing Crescent
43%
Illuminated
6 days in cycle

 Moonrise:

 Moonset:

 Sunrise:

 Sunset:

 Solar Noon:

12:08pm

11:40pm

7:07am

4:40pm

11:54am

0min 59s less daylight tomorrow 

  Solar Radiation 

(Current Solar)
  53 W/m2 (14%)
(Todays High)
 366 W/m2@9:03am
Feels like: 37.8°F in the sun

Rain

 Rain Today:

 Rain Rate (/hr):

 Rain last hour:

 Rain Yesterday:

 This Month:

 Season Total:

7 Days Since Last Rain Day

0.00 in

0.000 in

0.00 in

0.00 in

0.00 in

17.76 in

Updated Time

Updated: 12/6/16  9:52am

(Updated  sec ago)

Humidity & Barometer

 Humidity:

 Wetbulb:

 Dew Point:

 Barometer:

90% 

37.9°F 

36.4°F 

30.099 inHg 

 Baro Trend:  Steady 
Northern Calif
Preparedness
Fire 
Level 

    UV Index  

(Current UV)
0.0  None
(Todays High) @ 9:31am
0.7   Low

Weather Underground 5 day Forecast

Tue Wed Thu Fri Sat
Partly Cloudy Chance Rain Rain Chance Rain Chance Rain
Partly Cloudy Chance Rain Rain Chance Rain Chance Rain
50° 48° 51° 55° 53°
33° 42° 51° 45° 45°

Foresthill Probe 2 Stats  
Foresthill Probe 2: is located on Thomas Street
at 3000 feet. The main Foresthill Weather site
is located on Melody ln at the 2860 foot elevation

Calm
38.6°F
3.7°C
Temp Rate:
+1.3°F
Calm
Gusting to
3.0 mph
(Humidity)
92%
Wind from SSW
213°  SSW
Updated: 06/12/16 - 09:50:26
 Todays High: 38.6°F 09:49
 Todays Low: 33.0°F 03:54
 Rain Today: 0.00 in
 Season Total: 19.47 in

Foresthill Wx: Monthly,Yearly, Highs and Lows 

Foresthill  
This Weather Data is coming from the main Foresthill
Weather site located on Melody ln at the 2860 foot
elevation
Not Foresthill Probe 2
Weather Data
Month
  High
Month
  Low
Year
High
Year
Low
Temp 53.1°F
12/3/16
34.6°F
12/6/16
96.7°F
7/27/16
28.4°F
2/1/16
Humidity 94%
12/5/16
40%
12/2/16
100%
1/6/16
12%
8/4/16
Heat Index 55.1°F
12/3/16
36.5°F
12/2/16
93.3°F
7/27/16
33.3°F
2/1/16
Wind Chill 53.1°F
12/3/16
24.4°F
12/2/16
96.7°F
7/27/16
15.8°F
2/1/16
Wind Gust 30 mph
12/2/16
0 mph
12/1/16
48 mph
2/17/16
0 mph
1/1/16
Barometer 30.34 in
12/3/16
30.06 in
12/6/16
30.56 in
2/3/16
29.44 in
2/17/16
ET 0.06 in
12/2/16
0.00 in
12/1/16
0.27 in
6/22/16
0.00 in
1/1/16
Dew Point 43.6°F
12/4/16
20.8°F
12/2/16
64.3°F
6/4/16
17.1°F
9/21/16
Infrared Satellite Regional Radar Satellite Imagery Sacramento,CA.  (click to enlarge)
NWS Weather Forecast - Summary
Updated: Tuesday, December 6, 2016 - 4:10am (PST)
Current Interstate Highway Conditions for I-80 & US-50

[I 80: IN THE SAN FRANCISCO BAY AREA - SOLANO CO]
no traffic restrictions are reported for this area.

[I 80: IN THE NORTHERN CALIFORNIA AREA & SIERRA NEVADA]
  There is a dense fog advisory in effect from   The jct of I-5 (SACRAMENTO CO) to   The jct of sr 65 (PLACER CO) - motorists are advised to drive with caution
eastbound traffic is reduced to 2 lanes from 1. 2 mi east of   The jct of sr 193 /at hallborn rd/ to 1. 7 mi west of bowman /at russell rd/ (PLACER CO) from 9:00am to 3:00pm on 12/6/16 - due to maintenance
eastbound traffic is subject to lane reductions from 7. 3 mi east to 11. 7 mi east of   The north jct of sr 89 (NEVADA CO) from 6:00am to 6:00pm monday thru thursday thru 12/8/16 - due to construction

[US 50: IN THE NORTHERN CALIFORNIA AREA]
  There is a dense fog advisory in effect from 9th street /in sacramento/ to ma  Ther field rd /in rancho cordova/ (sacramento co) - motorists are advised to drive with caution
traffic is reduced to 1 lane in each direction from carson rd /in camino heights/ to sly park rd /in pollock pines/ (EL DORADO CO) from 6:00am to 6:00pm monday thru thursday thru 12/8/16 - due to maintenance
NWS Weather Forecast: Today and Tonight (Updated: 7:15 am PST Dec 6, 2016)
Today

Today: Mostly sunny, with a high near 44. Light and variable wind becoming west southwest around 6 mph in the afternoon.
Mostly Sunny


Hi 44 °F
NWS forecast: Mostly sunny, with a high near 44. Light and variable wind becoming west southwest around 6 mph in the afternoon.
Tonight

Tonight: Mostly clear, with a low around 30. East northeast wind 3 to 6 mph.
Mostly Clear


Lo 30 °F
NWS forecast: Mostly clear, with a low around 30. East northeast wind 3 to 6 mph.
YR.NO 10 Day Weather forecast
Last update: 12/05/2016 @ 23:43
Next update: 12/06/2016 @ 12:00
Provided by: 22
      Temperature Precipitation Pressure Wind  
Today
12/06/2016
10:00 13:00 39°F   30.07 inHg Light air from south-southwest 3 mph
  13:00 19:00 41°F   30.03 inHg Light breeze from southwest 5 mph
  19:00 01:00 32°F   30.11 inHg Light breeze from east-northeast 4 mph
    (Click to enlarge)
meteogram

    Forecast for next 9 days

      Temperature Precip Pressure Wind  
Wednesday
12/07/2016
01:00 07:00 25°F   30.13 inHg Light breeze from east-northeast 7 mph
  07:00 13:00 28°F   30.14 inHg Light breeze from east-northeast 7 mph
  13:00 19:00 43°F 0.04 in 30.13 inHg Light breeze from south-southwest 4 mph
  19:00 01:00 36°F 0.02 in 30.16 inHg Light breeze from east 6 mph
      Temperature Precip Pressure Wind  
Thursday
12/08/2016
01:00 07:00 36°F 0.19 in 30.17 inHg Light air from east 2 mph
  07:00 13:00 39°F 0.45 in 30.18 inHg Gentle breeze from southeast 9 mph
  10:00 16:00 43°F 0.41 in 30.18 inHg Gentle breeze from south-southeast 10 mph
  16:00 22:00 45°F 0.28 in 30.18 inHg Gentle breeze from south-southeast 8 mph
  22:00 04:00 46°F 0.24 in 30.20 inHg Light breeze from south-southeast 7 mph
      Temperature Precip Pressure Wind  
Friday
12/09/2016
04:00 10:00 45°F 0.07 in 30.22 inHg Light breeze from south-southwest 6 mph
  10:00 16:00 46°F 0.07 in 30.25 inHg Light breeze from south-southwest 6 mph
  16:00 22:00 46°F 0.38 in 30.14 inHg Light breeze from south 7 mph
  22:00 04:00 45°F 0.95 in 30.11 inHg Gentle breeze from south-southeast 8 mph
      Temperature Precip Pressure Wind  
Saturday
12/10/2016
04:00 10:00 46°F 1.08 in 30.01 inHg Gentle breeze from south 11 mph
  10:00 16:00 46°F 0.61 in 30.04 inHg Gentle breeze from south-southwest 11 mph
  16:00 22:00 43°F   30.03 inHg Gentle breeze from south 8 mph
  22:00 04:00 39°F   30.11 inHg Light breeze from south 5 mph
      Temperature Precip Pressure Wind  
Sunday
12/11/2016
04:00 10:00 36°F   30.19 inHg Light breeze from southeast 4 mph
  10:00 16:00 41°F   30.26 inHg Light air from southeast 2 mph
  16:00 22:00 41°F   30.21 inHg Light air from west 3 mph
  22:00 04:00 27°F   30.24 inHg Light air from east-northeast 3 mph
      Temperature Precip Pressure Wind  
Monday
12/12/2016
04:00 10:00 30°F   30.20 inHg Light breeze from east-northeast 4 mph
  10:00 16:00 41°F 0.04 in 30.22 inHg Light air from southeast 2 mph
  16:00 22:00 41°F   30.11 inHg Light air from east-southeast 2 mph
  22:00 04:00 43°F 0.04 in 30.10 inHg Light air from east-southeast 3 mph
      Temperature Precip Pressure Wind  
Tuesday
12/13/2016
04:00 10:00 43°F 0.54 in 30.09 inHg Light breeze from south-southwest 5 mph
  10:00 16:00 41°F 0.91 in 30.12 inHg Gentle breeze from southeast 11 mph
  16:00 22:00 45°F 0.43 in 30.06 inHg Gentle breeze from south-southeast 8 mph
  22:00 04:00 45°F 0.56 in 30.08 inHg Light breeze from south-southeast 7 mph
      Temperature Precip Pressure Wind  
Wednesday
12/14/2016
04:00 10:00 46°F 1.37 in 29.99 inHg Gentle breeze from south-southeast 8 mph
  10:00 16:00 46°F 1.47 in 30.01 inHg Gentle breeze from south-southeast 8 mph
  16:00 22:00 46°F 0.63 in 29.98 inHg Light breeze from south-southwest 6 mph
  22:00 04:00 45°F 0.13 in 30.07 inHg Light breeze from south-southeast 7 mph
      Temperature Precip Pressure Wind  
Thursday
12/15/2016
04:00 10:00 45°F 0.05 in 30.10 inHg Light breeze from southeast 6 mph
  10:00 16:00 48°F 0.03 in 30.17 inHg Light breeze from southeast 4 mph
How Close Are We To this Month's Temperature Record ?
Updated Tuesday, Dec 6, 2016- 9:50:00 AM

Current Temperature: 39.1°F

December's High: Temperature Record 65.8°F - Set on Tue, Dec 17, 2013 - 1:22:00 PM
We are currently 26.7°F Less than this Month's record High

December's Low: Temperature Record 20.2°F - Set on Sun, Dec 8, 2013 - 7:26:00 AM
We are currently 18.9°F More than this Month's record Low

Weather History For Tuesday, December 6, 2016


On this Day - In Weather History ...
Data courtesy of weatherforyou.com
powered by Cumulus v1.9.3 (1059)
Ambient Weather VWS v14.00
Top Contact Website Map Copyright © 2007 - 2016 Foresthillweather.com Never base important decisions on this or any weather information obtained from the Internet